Location: Betra
(48.4113°N, 8.6634°E)
Time: 20:32:15
(UTC+00:00)

Cosmos 2322 Rocket - Pass Details

Date: 23 May 2024
Orbit: 832 x 850 km, 71.0° (Epoch: 16 June)

Event Time Altitude Azimuth Distance (km) Brightness Sun altitude
Rises 00:51:15 0° 334° (NNW) 3,400 6.0 -18.1°
Reaches altitude 10° 00:53:46 10° 340° (NNW) 2,465 5.3 -18.0°
Maximum altitude 00:59:17 51° 56° (NE) 1,050 3.0 -17.6°
Drops below altitude 10° 01:04:47 10° 132° (SE) 2,463 4.4 -17.2°
Sets 01:07:18 0° 137° (SE) 3,397 5.1 -17.0°
